Tracking 20093 objects as of 16-Dec-2019
HD Live streaming from Space Station
objects crossing your sky now

FENGYUN 1C DEB

Track FENGYUN 1C DEB now!
10-day predictions


NORAD ID: 30542
Int'l Code: 1999-025AKG
Perigee: 860.8 km
Apogee: 901.0 km
Inclination: 99.1 °
Period: 102.4 minutes
Semi major axis: 7251 km
RCS: 0.0234 m2 (small)
Launch date: May 10, 1999
Source: People's Republic of China (PRC)
Launch site: Taiyaun Space Center, China (TSC)

Note: This is SATELLITE DEBRIS
aabbcc
Your satellite tracking list
Your tracking list is empty




NASA's NSSDC Master Catalog

Two Line Element Set (TLE):
1 30542U 99025AKG 19349.87429385 -.00000174 +00000-0 -78458-4 0  9991
2 30542 099.0545 018.9016 0027723 340.5092 194.1200 14.05815046661551
Source of the keplerian elements: AFSPC